Caldwell, NJ

1:45 PM EST on November 14, 2019 (GMT -0500)
Essex County

Weather History for KCDW - September, 2019

Change the Weather History Date:

Friday, September 6, 2019

  Actual Average Record
Temperature  
Mean Temperature 64 °F -  
Max Temperature 68 °F 79 °F 95 °F (2018)
Min Temperature 59 °F 57 °F 43 °F (1988)
Degree Days  
Heating Degree Days 2    
Growing Degree Days 14 (Base 50)    
Moisture  
Dew Point 56 °F    
Average Humidity 77    
Maximum Humidity 90    
Minimum Humidity 63    
Precipitation  
Precipitation 0.00 in - - ()
Sea Level Pressure  
Sea Level Pressure 29.91 in    
Wind  
Wind Speed 5 mph ()    
Max Wind Speed 15 mph    
Max Gust Speed 22 mph    
Visibility 9.8 miles    
Events Rain    
Averages and records for this station are not official NWS values.
T = Trace of Precipitation, MM = Missing Value Source: Averaged Metar Reports

Daily Weather History Graph

Daily Weather History Graph

Search for Another Location

Airport or City:

Astronomy

Sep. 06, 2019 Rise Set
Actual Time 6:28 AM EDT 7:21 PM EDT
Civil Twilight 6:00 AM EDT 7:49 PM EDT
Nautical Twilight 5:27 AM EDT 8:22 PM EDT
Astronomical Twilight 4:53 AM EDT 8:56 PM EDT
Moon 2:37 PM EDT (9/6) No Moon Set
Length of Visible Light 13h 48m
Length of Day
12h 53m
First Quarter, 55% of the Moon is Illuminated
Sep 6
First Quarter
Sep 14
Full
Sep 21
Last Quarter
Sep 28
New
Oct 5
First Quarter

Hourly Weather History & Observations

Time (EDT) Temp. Dew Point Humidity Pressure Visibility Wind Dir Wind Speed Gust Speed Precip Events Conditions
12:53 AM 63.0 °F 57.9 °F 84% 30.05 in 10.0 mi Calm Calm - N/A   Clear
1:53 AM 61.0 °F 57.9 °F 90% 30.04 in 10.0 mi NNE 3.5 mph - N/A   Clear
2:53 AM 61.0 °F 57.0 °F 87% 30.03 in 10.0 mi Calm Calm - N/A   Clear
3:53 AM 60.1 °F 57.0 °F 90% 30.01 in 10.0 mi NE 3.5 mph - N/A   Clear
4:53 AM 60.1 °F 55.0 °F 83% 30.01 in 10.0 mi Calm Calm - N/A   Clear
5:53 AM 59.0 °F 55.0 °F 87% 30.00 in 10.0 mi NNE 3.5 mph - N/A   Clear
6:53 AM 59.0 °F 55.0 °F 87% 29.99 in 10.0 mi North 4.6 mph - N/A   Clear
7:53 AM 61.0 °F 55.9 °F 83% 29.99 in 10.0 mi Calm Calm - N/A   Clear
8:53 AM 64.0 °F 57.0 °F 78% 29.99 in 10.0 mi NE 6.9 mph - N/A   Clear
9:53 AM 66.0 °F 57.0 °F 73% 29.97 in 10.0 mi East 6.9 mph - N/A   Mostly Cloudy
10:53 AM 66.0 °F 57.0 °F 73% 29.95 in 10.0 mi ENE 9.2 mph 17.3 mph N/A   Scattered Clouds
11:53 AM 66.9 °F 55.9 °F 68% 29.94 in 10.0 mi East 12.7 mph 21.9 mph N/A   Mostly Cloudy
12:29 PM 68.0 °F 55.9 °F 65% 29.92 in 10.0 mi ENE 11.5 mph 20.7 mph N/A   Mostly Cloudy
12:53 PM 68.0 °F 55.9 °F 65% 29.93 in 10.0 mi ENE 10.4 mph - N/A   Mostly Cloudy
1:53 PM 66.9 °F 55.0 °F 66% 29.90 in 10.0 mi ENE 11.5 mph 21.9 mph N/A   Overcast
2:53 PM 66.9 °F 55.0 °F 66% 29.85 in 10.0 mi East 12.7 mph 21.9 mph 0.00 in   Overcast
3:53 PM 66.9 °F 54.0 °F 63% 29.84 in 10.0 mi ENE 15.0 mph 19.6 mph N/A   Overcast
4:53 PM 64.9 °F 55.0 °F 70% 29.85 in 10.0 mi East 10.4 mph - 0.00 in   Overcast
5:53 PM 62.1 °F 57.0 °F 84% 29.85 in 7.0 mi Variable 5.8 mph - 0.00 in   Overcast
6:53 PM 63.0 °F 55.9 °F 78% 29.83 in 10.0 mi NE 4.6 mph - N/A   Overcast
7:35 PM 64.0 °F 55.9 °F 75% 29.81 in 10.0 mi ENE 8.1 mph - N/A   Overcast
7:53 PM 64.0 °F 55.0 °F 73% 29.83 in 10.0 mi ENE 10.4 mph - N/A   Overcast
8:05 PM 64.0 °F 54.0 °F 70% 29.81 in 10.0 mi ENE 10.4 mph - N/A   Overcast
8:53 PM 63.0 °F 54.0 °F 72% 29.82 in 10.0 mi Variable 6.9 mph - N/A   Overcast
9:53 PM 63.0 °F 54.0 °F 72% 29.81 in 10.0 mi NNE 9.2 mph - N/A   Overcast
10:16 PM 61.0 °F 55.9 °F 83% 29.80 in 8.0 mi Variable 5.8 mph - 0.00 in Rain Light Rain
10:53 PM 61.0 °F 57.0 °F 87% 29.83 in 10.0 mi Variable 5.8 mph - 0.00 in   Overcast
11:53 PM 60.1 °F 55.9 °F 86% 29.81 in 10.0 mi NNE 9.2 mph - N/A   Overcast